Little Traverse Bay, MI (45022)

Conditions for Sunday

Daily
Weekly
Monthly
Marine Data Graph

Current Weather/Wave Observations

Air Temperature: 64° F
Humidity: 86
Wind direction (W Dir): East (95 - 104 Degrees)
Wind Speed (W Spd): 9.7 kts (11.2 mph)
Wind Gust (W Spd): 11.7 kts (13.4 mph)
Dominant Wave Period (DWP): 2 sec
Dominant Wave Height (DWH): 0.98 ft
Dominant Wave Range (DWR): exactly 1.0 ft
Atmospheric Pressure (AP): 30.07 in

Updated: 7:50 PM EDT on September 15, 2019

Marine & Boating Location Search

Enter a coastal zip code for marine weather.

Current Wave Detail Observations

Water Depth: 0 ft
Wave Height: 1.12 ft
Spectral Peak Period: 2.0 sec
Average Wave Period:
Sampling Interval:
Wave Record:

Updated: 8:00 PM EDT on September 15, 2019

General Information

Location: 45.403 -85.088
Buoy Type: Moored Buoy
Owned by: University of Michigan CILER
Windspeed: Measured by obtained from anemometer
Sea Surface: Measured by Intake

Weather and Wave Data

Time Temp Humidity Wind Dominant Wave Pressure
  Air
(°F)
Water
(°F)
  Dir Speed
(kts)
Speed
(mph)
Period
(sec)
Height
(ft)
Range
(ft)
Atmo.
(in)
Tend.
(in)
20:00 63 63 66 SW 9.7 11.2 5 2.95 exactly 3.0 30.14 +0.01
20:10 63 63 67 SW 9.7 11.2 5 2.95 exactly 3.0 30.14 -
20:20 63 63 65 SW 7.8 8.9 5 2.62 exactly 2.6 30.14 -
20:30 63 63 67 SW 7.8 8.9 5 2.62 exactly 2.6 30.14 -
20:40 62 63 69 SW 7.8 8.9 5 2.62 exactly 2.6 30.14 -
20:50 62 63 71 SW 9.7 11.2 4 2.62 exactly 2.6 30.14 -
21:00 62 63 71 SW 7.8 8.9 5 2.62 exactly 2.6 30.14 +0.02
21:20 62 63 71 SSW 7.8 8.9 5 2.30 exactly 2.3 30.14 -
21:30 62 63 73 SW 7.8 8.9 5 2.30 exactly 2.3 30.14 -
21:40 62 63 73 SSW 7.8 8.9 4 2.30 exactly 2.3 30.14 -
22:00 62 63 73 SW 9.7 11.2 5 2.30 exactly 2.3 30.14 +0.02
22:20 62 63 73 SSW 7.8 8.9 4 1.97 exactly 2.0 30.14 -
22:30 61 63 77 SSW 7.8 8.9 5 1.97 exactly 2.0 30.14 -
22:50 61 63 77 SSW 7.8 8.9 5 1.97 exactly 2.0 30.14 -
23:10 61 63 77 South 7.8 8.9 5 1.97 exactly 2.0 30.14 -
23:30 61 63 77 SSW 7.8 8.9 4 1.64 exactly 1.6 30.14 -
23:40 61 63 76 South 5.8 6.7 4 1.64 exactly 1.6 30.15 -
23:50 61 63 77 South 3.9 4.5 4 1.64 exactly 1.6 30.16 -
00:10 61 63 77 SE 1.9 2.2 5 1.64 exactly 1.6 30.17 -
00:20 61 63 75 East 3.9 4.5 5 1.64 exactly 1.6 30.16 -
00:40 62 63 69 SSE 3.9 4.5 5 1.64 exactly 1.6 30.18 -
01:00 62 63 72 East 1.9 2.2 4 1.31 exactly 1.3 30.18 +0.04
01:30 61 63 80 East 3.9 4.5 3 1.31 exactly 1.3 30.18 -
01:40 60 63 84 ESE 7.8 8.9 4 1.31 exactly 1.3 30.18 -
01:50 60 63 86 ESE 7.8 8.9 5 1.31 exactly 1.3 30.19 -
02:10 58 63 89 East 9.7 11.2 4 1.31 exactly 1.3 30.19 -
02:30 58 63 83 East 13.6 15.7 1.31 exactly 1.3 30.18 -
02:40 58 63 82 East 13.6 15.7 2 1.31 exactly 1.3 30.17 -
02:50 57 63 84 East 13.6 15.7 2 1.31 exactly 1.3 30.16 -
03:00 57 63 82 East 15.6 17.9 2 1.64 exactly 1.6 30.16 -
03:10 57 63 83 East 13.6 15.7 2 1.64 exactly 1.6 30.16 -
03:30 56 63 88 East 15.6 17.9 2 1.64 exactly 1.6 30.15 -
04:00 56 63 95 East 13.6 15.7 2 1.64 exactly 1.6 30.16 -0.02
04:10 55 63 98 East 15.6 17.9 2 1.64 exactly 1.6 30.15 -
04:20 55 63 94 East 17.5 20.1 2 1.64 exactly 1.6 30.14 -
04:30 55 63 93 East 15.6 17.9 3 1.64 exactly 1.6 30.14 -
04:40 55 63 95 East 17.5 20.1 2 1.64 exactly 1.6 30.13 -
05:00 55 63 95 East 17.5 20.1 3 1.97 exactly 2.0 30.10 -0.09
05:10 55 63 95 East 17.5 20.1 3 1.97 exactly 2.0 30.11 -
05:30 55 63 93 ENE 15.6 17.9 3 1.97 exactly 2.0 30.13 -
05:40 55 63 92 East 15.6 17.9 3 1.97 exactly 2.0 30.12 -
05:50 55 63 94 East 15.6 17.9 3 1.97 exactly 2.0 30.12 -
06:00 55 63 94 East 15.6 17.9 3 1.97 exactly 2.0 30.13 -0.03
06:30 55 63 95 East 15.6 17.9 3 1.64 exactly 1.6 30.13 -
06:40 55 63 94 East 15.6 17.9 3 1.64 exactly 1.6 30.14 -
06:50 55 63 94 East 15.6 17.9 3 1.64 exactly 1.6 30.13 -
07:00 55 63 94 East 15.6 17.9 3 1.64 exactly 1.6 30.14 -0.02
07:20 55 63 94 East 15.6 17.9 3 1.64 exactly 1.6 30.14 -
07:40 55 63 95 East 15.6 17.9 2 1.64 exactly 1.6 30.14 -
07:50 55 63 97 East 15.6 17.9 3 1.64 exactly 1.6 30.13 -
08:10 55 63 98 East 15.6 17.9 3 1.64 exactly 1.6 30.14 -
08:30 55 63 96 East 15.6 17.9 3 1.64 exactly 1.6 30.14 -
08:50 55 63 95 East 15.6 17.9 2 1.64 exactly 1.6 30.14 -
09:00 55 63 96 East 15.6 17.9 2 1.64 exactly 1.6 30.14 +0.01
09:10 55 63 96 East 15.6 17.9 3 1.64 exactly 1.6 30.14 -
09:20 55 63 98 East 13.6 15.7 2 1.64 exactly 1.6 30.14 -
09:30 56 63 93 East 15.6 17.9 2 1.31 exactly 1.3 30.14 -
10:00 57 63 92 East 13.6 15.7 2 1.31 exactly 1.3 30.14 -
10:40 58 63 90 East 15.6 17.9 2 1.64 exactly 1.6 30.14 -
10:50 58 63 92 East 13.6 15.7 3 1.31 exactly 1.3 30.14 -
11:10 60 63 87 East 13.6 15.7 2 1.64 exactly 1.6 30.14 -
11:20 60 63 87 East 11.7 13.4 2 1.64 exactly 1.6 30.13 -
11:40 60 63 88 East 13.6 15.7 3 1.31 exactly 1.3 30.13 -
11:50 61 63 85 East 13.6 15.7 3 1.31 exactly 1.3 30.12 -
12:00 61 63 85 East 13.6 15.7 2 1.31 exactly 1.3 30.12 -0.02
12:20 61 63 88 East 11.7 13.4 2 1.31 exactly 1.3 30.12 -
12:30 62 63 84 East 13.6 15.7 2 1.31 exactly 1.3 30.12 -
12:40 62 63 84 East 13.6 15.7 2 1.31 exactly 1.3 30.12 -
13:00 63 63 84 East 11.7 13.4 2 1.31 exactly 1.3 30.12 -0.02
13:30 63 63 85 East 11.7 13.4 2 1.31 exactly 1.3 30.12 -
13:40 64 63 82 East 11.7 13.4 2 1.31 exactly 1.3 30.11 -
13:50 64 63 82 East 11.7 13.4 2 1.31 exactly 1.3 30.11 -
14:00 64 63 82 East 11.7 13.4 1.31 exactly 1.3 30.11 -0.03
14:30 63 63 88 East 11.7 13.4 2 1.31 exactly 1.3 30.10 -
14:40 64 63 82 East 13.6 15.7 2 0.98 exactly 1.0 30.10 -
14:50 64 63 82 ENE 13.6 15.7 2 1.31 exactly 1.3 30.09 -
15:00 64 63 83 ENE 13.6 15.7 2 1.31 exactly 1.3 30.09 -0.03
15:10 63 63 87 ENE 13.6 15.7 2 1.31 exactly 1.3 30.09 -
15:40 64 63 85 East 11.7 13.4 2 1.31 exactly 1.3 30.08 -
15:50 64 63 85 East 11.7 13.4 2 1.31 exactly 1.3 30.08 -
16:10 64 63 86 East 11.7 13.4 2 1.31 exactly 1.3 30.08 -
16:20 64 63 86 East 11.7 13.4 2 0.98 exactly 1.0 30.08 -
16:30 64 63 87 East 11.7 13.4 2 0.98 exactly 1.0 30.08 -
16:40 64 63 86 East 11.7 13.4 2 0.98 exactly 1.0 30.08 -
17:00 64 63 87 East 11.7 13.4 2 0.98 exactly 1.0 30.07 -0.03
17:10 64 63 87 East 11.7 13.4 2 0.98 exactly 1.0 30.07 -
17:30 64 63 87 East 9.7 11.2 2 0.98 exactly 1.0 30.07 -
17:40 64 63 86 East 9.7 11.2 2 0.98 exactly 1.0 30.07 -
17:50 64 63 86 East 11.7 13.4 2 0.98 exactly 1.0 30.07 -
18:00 64 63 86 East 11.7 13.4 0.98 exactly 1.0 30.07 -0.02
18:10 64 63 86 East 11.7 13.4 0.98 exactly 1.0 30.07 -
18:30 64 63 86 East 11.7 13.4 2 0.98 exactly 1.0 30.07 -
18:40 64 63 86 East 11.7 13.4 2 0.98 exactly 1.0 30.07 -
18:50 64 63 87 East 11.7 13.4 2 0.98 exactly 1.0 30.07 -
19:00 64 63 87 East 11.7 13.4 0.98 exactly 1.0 30.07 -0.01
19:10 64 63 87 East 11.7 13.4 2 0.98 exactly 1.0 30.07 -
19:30 64 63 87 East 11.7 13.4 2 0.98 exactly 1.0 30.07 -
19:50 64 63 86 East 9.7 11.2 2 0.98 exactly 1.0 30.07 -

Detailed Wave Spectra

Time Water Depth Wave Height Spectral Peak Period Average Wave Period Sampling Interval Wave Record
00:00 0 ft 1.64 ft 4.3 sec
02:00 0 ft 1.28 ft
08:00 0 ft 1.71 ft 2.7 sec
11:00 0 ft 1.51 ft 2.5 sec
16:00 0 ft 1.15 ft 2.3 sec
20:00 0 ft 1.05 ft 2.1 sec